Previsão horária em São Lui

Hoje, 28 Novembro, Sábado

Tempo Temperatura Precipitação Vento Pressão Humidade
00:00 +22°C° 0 mm 4 m/s 736 mmHg 23%
01:00 +21°C° 0 mm 4 m/s 735 mmHg 25%
02:00 +21°C° 0 mm 4 m/s 736 mmHg 26%
03:00 +21°C° 0 mm 4 m/s 736 mmHg 27%
04:00 +20°C° 0 mm 4 m/s 736 mmHg 28%
05:00 +20°C° 0 mm 4 m/s 736 mmHg 29%
06:00 +20°C° 0 mm 4 m/s 737 mmHg 30%
07:00 +20°C° 0 mm 4 m/s 737 mmHg 31%
08:00 +22°C° 0 mm 5 m/s 737 mmHg 27%
09:00 +26°C° 0 mm 6 m/s 738 mmHg 23%
10:00 +28°C° 0 mm 7 m/s 738 mmHg 19%
11:00 +30°C° 0 mm 6 m/s 737 mmHg 17%
12:00 +32°C° 0 mm 6 m/s 736 mmHg 15%
13:00 +33°C° 0 mm 6 m/s 736 mmHg 13%
14:00 +33°C° 0 mm 6 m/s 735 mmHg 13%
15:00 +33°C° 0 mm 5 m/s 735 mmHg 13%
16:00 +33°C° 0 mm 5 m/s 735 mmHg 13%
17:00 +30°C° 0 mm 4 m/s 735 mmHg 15%
18:00 +28°C° 0 mm 4 m/s 735 mmHg 17%
19:00 +26°C° 0 mm 3 m/s 735 mmHg 19%
20:00 +25°C° 0 mm 3 m/s 736 mmHg 20%
21:00 +25°C° 0 mm 4 m/s 736 mmHg 20%
22:00 +25°C° 0 mm 4 m/s 737 mmHg 21%
23:00 +23°C° 0 mm 4 m/s 737 mmHg 21%

Amanhã, 29 Novembro, Domingo

Tempo Temperatura Precipitação Vento Pressão Humidade
00:00 +23°C° 0 mm 4 m/s 736 mmHg 21%
01:00 +22°C° 0 mm 4 m/s 736 mmHg 21%
02:00 +22°C° 0 mm 4 m/s 736 mmHg 22%
03:00 +21°C° 0 mm 4 m/s 736 mmHg 22%
04:00 +20°C° 0 mm 4 m/s 736 mmHg 23%
05:00 +20°C° 0 mm 4 m/s 736 mmHg 23%
06:00 +20°C° 0 mm 4 m/s 736 mmHg 24%
07:00 +20°C° 0 mm 4 m/s 736 mmHg 24%
08:00 +22°C° 0 mm 5 m/s 737 mmHg 21%
09:00 +26°C° 0 mm 5 m/s 737 mmHg 18%
10:00 +28°C° 0 mm 6 m/s 738 mmHg 15%
11:00 +30°C° 0 mm 6 m/s 737 mmHg 14%
12:00 +32°C° 0 mm 6 m/s 736 mmHg 12%
13:00 +34°C° 0 mm 6 m/s 736 mmHg 11%
14:00 +34°C° 0 mm 5 m/s 735 mmHg 11%
15:00 +34°C° 0 mm 5 m/s 735 mmHg 11%
16:00 +34°C° 0 mm 5 m/s 734 mmHg 11%
17:00 +32°C° 0 mm 4 m/s 735 mmHg 12%
18:00 +29°C° 0 mm 4 m/s 735 mmHg 13%
19:00 +27°C° 0 mm 3 m/s 735 mmHg 15%
20:00 +26°C° 0 mm 3 m/s 735 mmHg 15%
21:00 +26°C° 0 mm 3 m/s 736 mmHg 15%
22:00 +25°C° 0 mm 3 m/s 736 mmHg 15%
23:00 +25°C° 0 mm 4 m/s 736 mmHg 15%

Depois de amanhã, 30 Novembro, Segunda-feira

Tempo Temperatura Precipitação Vento Pressão Humidade
00:00 +23°C° 0 mm 4 m/s 736 mmHg 15%
01:00 +23°C° 0 mm 4 m/s 736 mmHg 15%
02:00 +22°C° 0 mm 4 m/s 736 mmHg 16%
03:00 +22°C° 0 mm 4 m/s 736 mmHg 18%
04:00 +21°C° 0 mm 4 m/s 736 mmHg 19%
05:00 +21°C° 0 mm 4 m/s 736 mmHg 19%
06:00 +21°C° 0 mm 4 m/s 736 mmHg 19%
07:00 +21°C° 0 mm 4 m/s 737 mmHg 19%
08:00 +25°C° 0 mm 5 m/s 737 mmHg 16%
09:00 +27°C° 0 mm 5 m/s 738 mmHg 14%
10:00 +30°C° 0 mm 6 m/s 738 mmHg 11%
11:00 +32°C° 0 mm 6 m/s 737 mmHg 10%
12:00 +34°C° 0 mm 6 m/s 737 mmHg 9%
13:00 +35°C° 0 mm 6 m/s 736 mmHg 8%
14:00 +35°C° 0 mm 5 m/s 736 mmHg 8%
15:00 +35°C° 0 mm 5 m/s 736 mmHg 8%
16:00 +35°C° 0 mm 4 m/s 735 mmHg 8%
17:00 +33°C° 0 mm 4 m/s 736 mmHg 9%
18:00 +30°C° 0 mm 4 m/s 736 mmHg 11%
19:00 +27°C° 0 mm 3 m/s 736 mmHg 12%
20:00 +27°C° 0 mm 3 m/s 736 mmHg 12%
21:00 +26°C° 0 mm 3 m/s 736 mmHg 13%
22:00 +26°C° 0 mm 3 m/s 737 mmHg 13%
23:00 +25°C° 0 mm 3 m/s 736 mmHg 14%

1 Dezembro, Terça-feira

Tempo Temperatura Precipitação Vento Pressão Humidade
00:00 +25°C° 0 mm 3 m/s 736 mmHg 14%
01:00 +25°C° 0 mm 4 m/s 736 mmHg 15%
02:00 +23°C° 0 mm 4 m/s 736 mmHg 15%
03:00 +23°C° 0 mm 4 m/s 736 mmHg 16%
04:00 +22°C° 0 mm 4 m/s 736 mmHg 17%
05:00 +22°C° 0 mm 4 m/s 736 mmHg 18%
06:00 +22°C° 0 mm 4 m/s 736 mmHg 18%
07:00 +21°C° 0 mm 4 m/s 737 mmHg 19%
08:00 +23°C° 0 mm 5 m/s 737 mmHg 17%
09:00 +27°C° 0 mm 7 m/s 737 mmHg 16%
10:00 +29°C° 0 mm 8 m/s 738 mmHg 15%
11:00 +30°C° 0 mm 7 m/s 737 mmHg 13%
12:00 +33°C° 0 mm 7 m/s 736 mmHg 12%
13:00 +34°C° 0 mm 7 m/s 735 mmHg 10%
14:00 +34°C° 0 mm 6 m/s 735 mmHg 11%
15:00 +34°C° 0 mm 6 m/s 735 mmHg 11%
16:00 +34°C° 0 mm 5 m/s 735 mmHg 11%
17:00 +32°C° 0 mm 4 m/s 735 mmHg 12%
18:00 +29°C° 0 mm 4 m/s 735 mmHg 14%
19:00 +27°C° 0 mm 4 m/s 736 mmHg 16%
20:00 +26°C° 0 mm 4 m/s 736 mmHg 17%
21:00 +25°C° 0 mm 4 m/s 736 mmHg 17%
22:00 +25°C° 0 mm 4 m/s 737 mmHg 18%
23:00 +23°C° 0 mm 5 m/s 736 mmHg 18%

2 Dezembro, Quarta-feira

Tempo Temperatura Precipitação Vento Pressão Humidade
00:00 +22°C° 0 mm 5 m/s 736 mmHg 18%
01:00 +22°C° 0 mm 5 m/s 736 mmHg 18%
02:00 +21°C° 0 mm 5 m/s 736 mmHg 18%
03:00 +21°C° 0 mm 5 m/s 736 mmHg 17%
04:00 +20°C° 0 mm 6 m/s 736 mmHg 16%
05:00 +20°C° 0 mm 6 m/s 736 mmHg 15%
06:00 +20°C° 0 mm 6 m/s 736 mmHg 15%
07:00 +19°C° 0 mm 6 m/s 736 mmHg 15%
08:00 +21°C° 0 mm 6 m/s 737 mmHg 13%
09:00 +24°C° 0 mm 7 m/s 737 mmHg 11%
10:00 +27°C° 0 mm 8 m/s 737 mmHg 10%
11:00 +28°C° 0 mm 8 m/s 736 mmHg 9%
12:00 +29°C° 0 mm 7 m/s 736 mmHg 9%
13:00 +32°C° 0 mm 7 m/s 735 mmHg 8%
14:00 +32°C° 0 mm 6 m/s 735 mmHg 8%
15:00 +32°C° 0 mm 5 m/s 734 mmHg 8%
16:00 +30°C° 0 mm 5 m/s 734 mmHg 9%
17:00 +28°C° 0 mm 4 m/s 734 mmHg 10%
18:00 +27°C° 0 mm 4 m/s 735 mmHg 11%
19:00 +25°C° 0 mm 4 m/s 735 mmHg 12%
20:00 +23°C° 0 mm 4 m/s 736 mmHg 12%
21:00 +23°C° 0 mm 4 m/s 736 mmHg 13%
22:00 +22°C° 0 mm 4 m/s 736 mmHg 13%
23:00 +21°C° 0 mm 4 m/s 736 mmHg 15%

3 Dezembro, Quinta-feira

Tempo Temperatura Precipitação Vento Pressão Humidade
00:00 +21°C° 0 mm 4 m/s 736 mmHg 16%
01:00 +20°C° 0 mm 4 m/s 735 mmHg 17%
02:00 +20°C° 0 mm 4 m/s 735 mmHg 19%
03:00 +19°C° 0 mm 4 m/s 735 mmHg 21%
04:00 +19°C° 0 mm 4 m/s 735 mmHg 23%
05:00 +19°C° 0 mm 4 m/s 736 mmHg 24%
06:00 +18°C° 0 mm 4 m/s 736 mmHg 26%
07:00 +18°C° 0 mm 4 m/s 737 mmHg 28%
08:00 +21°C° 0 mm 5 m/s 737 mmHg 24%
09:00 +23°C° 0 mm 5 m/s 737 mmHg 21%
10:00 +27°C° 0 mm 6 m/s 737 mmHg 17%
11:00 +28°C° 0 mm 6 m/s 737 mmHg 16%
12:00 +29°C° 0 mm 6 m/s 736 mmHg 14%
13:00 +32°C° 0 mm 5 m/s 735 mmHg 12%
14:00 +32°C° 0 mm 5 m/s 735 mmHg 12%
15:00 +32°C° 0 mm 4 m/s 735 mmHg 12%
16:00 +32°C° 0 mm 4 m/s 734 mmHg 11%
17:00 +29°C° 0 mm 3 m/s 735 mmHg 13%
18:00 +27°C° 0 mm 3 m/s 735 mmHg 15%
19:00 +25°C° 0 mm 3 m/s 735 mmHg 17%
20:00 +24°C° 0 mm 3 m/s 735 mmHg 17%
21:00 +24°C° 0 mm 3 m/s 735 mmHg 18%
22:00 +22°C° 0 mm 3 m/s 736 mmHg 18%
23:00 +22°C° 0 mm 3 m/s 735 mmHg 18%
Mostrar mais

Necessitamos do seu Consentimento

A Meteoprog e os seus Fornecedores de Serviços podem armazenar e aceder a dados pessoais como cookies, identificadores do dispositivo ou outras tecnologias semelhantes existentes no seu dispositivo e processar estes dados para personalizar conteúdos e anúncios, assim como funcionalidades nas redes sociais e análise de tráfego.

  • Armazenar e/ou aceder a informações no seu dispositivo

    Os cookies, identificadores do dispositivo ou outras informações podem ser armazenados ou acedidos no seu dispositivo, para os fins acima indicados.

  • Anúncios e conteúdos personalizados, medição de anúncios e conteúdos, dados sobre o público-alvo e desenvolvimento de produtos

    Os anúncios e os conteúdos podem ser personalizados com base num perfil. Podem ser adicionados dados adicionais para uma maior personalização dos anúncios e dos conteúdos. A eficácia dos anúncios e dos conteúdos pode ser medida. Podem ser obtidas informações sobre o público que visualizou os anúncios e os conteúdos. Estes dados podem ser usados para desenvolver ou melhorar sistemas, softwares ou a experiência do utilizador.

Ao clicar em "Eu concordo”, permitirá o uso de cookies, identificadores do dispositivo e web beacons mencionados ou outras tecnologias semelhantes. As configurações do navegador do seu dispositivo podem ser alteradas.

Para certos fins, podem ser invocados interesses legítimos ao invés de consentimento. Pode ler mais informação sobre este assunto na nossa Política de Privacidade e Cookies.